"Pseudo-MPEC" for P1162nS

Created 2020 Sep 19 22:07:22 UT using Find_Orb

Click here for an explanation of pseudo-MPECs

 
 Astrometry: 
     P1162nS  C2020 09 12P)hJooP*)$RBg!9L2EAstrometry$MHTDHd,GVlw95.*R4h5ltWYF51
     P1162nS  C2020 09 12uJ_O7^-,abUKI[;St*U]redacted;4bKclickVwP/Q%Y7UpO5\$QF51
     P1162nS  C2020 09 12k)G?pTm0PiLyItP2K/Fl[+(_7MB7taaNU8++da*h[4-xF#=owQ69F51
     P1162nS  C2020 09 14$Y+x@F'Ob?5herem^vRLX@?MB5DlfFC#:forH6y0E'`.!uU_Kae]F51
     P1162nS  C2020 09 14\kTryipkVqh31jIdEY/sq'n'@th_W$QZY#3texplanationX2kEVF51
     P1162nS  C2020 09 14kH@6()!UxJ\rDJX!Oc5bfd:Zw_[BokipMsf(Nd,d]*4;`=$OYDRDF51
     P1162nS  C2020 09 149fAx!=H'b7Qidrl(XV?cE4Ib8xB7*@Pq;(rXPTuh+dRI6y,oUKX`F51
     P1162nS ^C2020 09 15.34741223 11 14.597-22 26 22.53   ~9F9q 22.61GVNEOCP568
     P1162nS ^C2020 09 15.34836023 11 14.583-22 26 20.73   ~9F9q 22.28GVNEOCP568
     P1162nS ^C2020 09 15.34930723 11 14.568-22 26 18.97   ~9F9q 22.86GVNEOCP568

Station data:
(568) Mauna Kea  (N19.826116 W155.472200)  US/Hawaii.
(F51) Pan-STARRS 1, Haleakala  (N20.707235 W156.255910)  US/Hawaii.
   Observers N. Primak, A. Schultz, S. Watters, J. Thiel, T. Goggia. Measurer
   PS1 Science Consortium. 1.8-m Ritchey-Chrétien + CCD.

Orbital elements:  P1162nS
   Perihelion 2020 Jul 10.684660 +/- 0.523 TT = 16:25:54 (JD 2459041.184660)
Epoch 2020 Sep 15.0 TT = JDT 2459107.5   Earth MOID: 0.0045   Ma: 0.0403
M  20.07947793 +/- 2.9              (J2000 ecliptic)          AutoNEOCP
n   0.30278782 +/- 0.0426           Peri.  215.60107 +/- 2.2
a   2.19639496 +/- 0.206            Node    60.24117 +/- 2.1
e   0.5788907 +/- 0.0403            Incl.    3.53984 +/- 0.21
P   3.26                   H 24.5   G  0.15   U 10.6  
q 0.92492222 +/- 0.00207    Q 3.46786770 +/- 0.453
From 10 observations 2020 Sept. 12-15; mean residual 0".16
Residuals in arcseconds: 
200912 F51  .01+  .41-    200914 F51  .05-  .01+    200915 568  .00   .01+    
200912 F51  .02+  .51+    200914 F51  .07+  .16-    200915 568  .01-  .04-    
200912 F51  .03-  .09-    200914 F51  .02+  .10+    
200914 F51  .03-  .03+    200915 568  .00   .03+    

Ephemerides (geocentric):
Date (UTC) HH   RA              Dec         delta   r     elong  mag " sig PA
---- -- -- --  -------------   -----------  ------ ------ -----  --- ---- ---
2020 09 19 22  23 11 15.207   -20 11 52.56  .30971 1.2979 158.8 23.4 2.03  40
2020 09 19 23  23 11 15.321   -20 10 45.78  .31009 1.2982 158.8 23.4 2.08  41
2020 09 20 00  23 11 15.437   -20 09 39.11  .31047 1.2986 158.7 23.4 2.13  42
2020 09 20 01  23 11 15.556   -20 08 32.53  .31086 1.2989 158.7 23.4 2.18  42
2020 09 20 02  23 11 15.676   -20 07 26.07  .31124 1.2992 158.7 23.4 2.24  43
2020 09 20 03  23 11 15.798   -20 06 19.71  .31163 1.2996 158.7 23.4 2.29  43
2020 09 20 04  23 11 15.922   -20 05 13.45  .31201 1.2999 158.7 23.4 2.34  44
2020 09 20 05  23 11 16.048   -20 04 07.30  .31240 1.3002 158.7 23.4 2.40  45
2020 09 20 06  23 11 16.176   -20 03 01.25  .31278 1.3006 158.7 23.4 2.46  45
2020 09 20 07  23 11 16.306   -20 01 55.30  .31317 1.3009 158.6 23.4 2.52  46
2020 09 20 08  23 11 16.437   -20 00 49.46  .31355 1.3012 158.6 23.4 2.58  46
2020 09 20 09  23 11 16.571   -19 59 43.72  .31394 1.3016 158.6 23.4 2.64  47
2020 09 20 10  23 11 16.707   -19 58 38.09  .31432 1.3019 158.6 23.5 2.70  47
2020 09 20 11  23 11 16.845   -19 57 32.55  .31471 1.3023 158.6 23.5 2.76  48
2020 09 20 12  23 11 16.985   -19 56 27.12  .31509 1.3026 158.6 23.5 2.82  48
2020 09 20 13  23 11 17.126   -19 55 21.79  .31548 1.3029 158.6 23.5 2.89  48
2020 09 20 14  23 11 17.270   -19 54 16.56  .31587 1.3033 158.5 23.5 2.95  49
2020 09 20 15  23 11 17.416   -19 53 11.43  .31625 1.3036 158.5 23.5 3.02  49
2020 09 20 16  23 11 17.563   -19 52 06.40  .31664 1.3039 158.5 23.5 3.08  50
2020 09 20 17  23 11 17.713   -19 51 01.47  .31703 1.3043 158.5 23.5 3.15  50
2020 09 20 18  23 11 17.865   -19 49 56.64  .31742 1.3046 158.5 23.5 3.22  50
2020 09 20 19  23 11 18.018   -19 48 51.91  .31780 1.3049 158.5 23.5 3.29  51
2020 09 20 20  23 11 18.174   -19 47 47.28  .31819 1.3053 158.4 23.5 3.36  51
2020 09 20 21  23 11 18.332   -19 46 42.75  .31858 1.3056 158.4 23.5 3.43  51
2020 09 20 22  23 11 18.491   -19 45 38.32  .31897 1.3059 158.4 23.5 3.51  51
2020 09 20 23  23 11 18.653   -19 44 33.99  .31936 1.3063 158.4 23.5 3.58  52
2020 09 21 00  23 11 18.817   -19 43 29.75  .31975 1.3066 158.4 23.5 3.65  52
2020 09 21 01  23 11 18.982   -19 42 25.62  .32014 1.3070 158.4 23.5 3.73  52
2020 09 21 02  23 11 19.150   -19 41 21.58  .32053 1.3073 158.4 23.5 3.80  53
2020 09 21 03  23 11 19.319   -19 40 17.64  .32092 1.3076 158.3 23.5 3.88  53
2020 09 21 04  23 11 19.491   -19 39 13.79  .32131 1.3080 158.3 23.5 3.96  53
2020 09 21 05  23 11 19.665   -19 38 10.04  .32170 1.3083 158.3 23.5 4.04  53
2020 09 21 06  23 11 19.840   -19 37 06.39  .32209 1.3086 158.3 23.5 4.12  53
2020 09 21 07  23 11 20.018   -19 36 02.84  .32248 1.3090 158.3 23.5 4.20  54
2020 09 21 08  23 11 20.198   -19 34 59.38  .32287 1.3093 158.3 23.5 4.28  54
2020 09 21 09  23 11 20.380   -19 33 56.01  .32326 1.3096 158.2 23.5 4.36  54
2020 09 21 10  23 11 20.563   -19 32 52.74  .32365 1.3100 158.2 23.5 4.45  54
2020 09 21 11  23 11 20.749   -19 31 49.57  .32404 1.3103 158.2 23.5 4.53  54
2020 09 21 12  23 11 20.937   -19 30 46.49  .32443 1.3107 158.2 23.5 4.62  55
2020 09 21 13  23 11 21.127   -19 29 43.50  .32482 1.3110 158.2 23.5 4.70  55
2020 09 21 14  23 11 21.319   -19 28 40.61  .32522 1.3113 158.2 23.5 4.79  55
2020 09 21 15  23 11 21.513   -19 27 37.81  .32561 1.3117 158.1 23.6 4.88  55
2020 09 21 16  23 11 21.708   -19 26 35.11  .32600 1.3120 158.1 23.6 4.97  55
2020 09 21 17  23 11 21.906   -19 25 32.50  .32639 1.3123 158.1 23.6 5.06  55
2020 09 21 18  23 11 22.106   -19 24 29.98  .32679 1.3127 158.1 23.6 5.15  56
2020 09 21 19  23 11 22.308   -19 23 27.56  .32718 1.3130 158.1 23.6 5.24  56
2020 09 21 20  23 11 22.512   -19 22 25.22  .32757 1.3133 158.1 23.6 5.33  56
2020 09 21 21  23 11 22.718   -19 21 22.98  .32796 1.3137 158.0 23.6 5.42  56